sat.trackr.live / text

‹ back to catalog

STARLINK-35257

NORAD 66331 · 2025-253N

PAYLOAD ACTIVE UNKNOWN

§ Identity

Operator
Country
US
Launch date
2025-11-06
Launch site
AFETR
Launch vehicle
Mass (kg)
RCS (m²)

Purposes: comms

External: N2YO · Heavens-Above · Gunter

§ Orbital elements

Epoch: 2026-09-20T02:55:24.387456Z

Period
94.27 min
Inclination
43.0026°
Eccentricity
0.0001114
Mean motion
15.27592436 rev/d
Perigee alt
482.2 km
Apogee alt
483.8 km
Semi-major
6,861.1 km
B*
4.3871e-4
RAAN
194.1680°
Arg perigee
281.5430°
Mean anomaly
78.5297°
Rev number
4,998

§ Raw data

STARLINK-352571 66331U 25253N   26263.12181004  .00011834  00000+0  43871-3 0  99942 66331  43.0026 194.1680 0001114 281.5430  78.5297 15.27592436 49987

JSON: /api/v1/satellites/66331 · /tle

For live sub-satellite position, see the globe view (requires WebGL).

§ Visibility from observer

Set your observer location to see the next 7 days of passes ≥ 10°. The values pass through the URL so the page stays shareable.

No JS? Fill the form by hand. The geolocation button needs JavaScript.